Caslav, Czech Republic

9:58 PM CEST on May 24, 2017 (GMT +0200)
Caslav

Weather History for LKCV - April, 2013

Change the Weather History Date:

Wednesday, April 17, 2013

  Actual Average Record
Temperature  
Mean Temperature 60 °F -  
Max Temperature 69 °F - - ()
Min Temperature 50 °F - - ()
Degree Days  
Heating Degree Days 6    
Growing Degree Days 10 (Base 50)    
Moisture  
Dew Point 47 °F    
Average Humidity 61    
Maximum Humidity 82    
Minimum Humidity 43    
Precipitation  
Precipitation 0.00 in - - ()
Sea Level Pressure  
Sea Level Pressure 30.18 in    
Wind  
Wind Speed 3 mph ()    
Max Wind Speed 7 mph    
Max Gust Speed -    
Visibility 6.2 miles    
Events      
T = Trace of Precipitation, MM = Missing Value Source: Averaged Metar Reports

Daily Weather History Graph

Daily Weather History Graph

Search for Another Location

Airport or City:

Trip Planner

Search our weather history database for the weather conditions in past years. The results will help you decide how hot, cold, wet, or windy it might be!

Date:

Astronomy

Apr. 17, 2013 Rise Set
Actual Time 6:01 AM CEST 7:55 PM CEST
Civil Twilight 5:27 AM CEST 8:29 PM CEST
Nautical Twilight 4:44 AM CEST 9:12 PM CEST
Astronomical Twilight 3:57 AM CEST 10:00 PM CEST
Moon 10:46 AM CEST (4/17) 1:35 AM CEST (4/17)
Length of Visible Light 15h 02m
Length of Day
13h 53m
Waxing Crescent, 40% of the Moon is Illuminated
Apr 17
Waxing Crescent
Apr 18
First Quarter
Apr 25
Full
May 2
Last Quarter
May 10
New

Hourly Weather History & Observations

Time (CEST) Temp. Dew Point Humidity Pressure Visibility Wind Dir Wind Speed Gust Speed Precip Events Conditions
12:00 AM 57.2 °F 41.0 °F 55% 30.15 in - SE 6.9 mph - N/A   Clear
1:00 AM 55.4 °F 41.0 °F 58% 30.15 in - Variable 2.3 mph - N/A   Clear
2:00 AM 57.2 °F 41.0 °F 55% 30.15 in - ESE 3.5 mph - N/A   Clear
3:00 AM 55.4 °F 41.0 °F 58% 30.18 in - SSE 4.6 mph - N/A   Clear
4:00 AM 53.6 °F 41.0 °F 62% 30.15 in - SE 4.6 mph - N/A   Clear
5:00 AM 51.8 °F 41.0 °F 67% 30.15 in - SSE 4.6 mph - N/A   Clear
6:00 AM 50.0 °F 42.8 °F 76% 30.18 in - Calm Calm - N/A   Clear
7:00 AM 51.8 °F 44.6 °F 76% 30.21 in - SE 2.3 mph - N/A   Clear
8:00 AM 53.6 °F 44.6 °F 72% 30.21 in - SE 3.5 mph - N/A   Clear
9:00 AM 59.0 °F 48.2 °F 67% 30.21 in - Calm Calm - N/A   Clear
10:00 AM 60.8 °F 50.0 °F 68% 30.21 in - NW 3.5 mph - N/A   Clear
11:00 AM 60.8 °F 51.8 °F 72% 30.24 in - NNW 4.6 mph - N/A   Clear
12:00 PM 64.4 °F 53.6 °F 68% 30.21 in - Variable 3.5 mph - N/A   Clear
1:00 PM 68.0 °F 50.0 °F 52% 30.21 in 6.2 mi Variable 2.3 mph - N/A   Scattered Clouds
2:00 PM 69.8 °F 50.0 °F 49% 30.21 in 6.2 mi Variable 3.5 mph - N/A   Scattered Clouds
3:00 PM 69.8 °F 46.4 °F 43% 30.18 in 6.2 mi NW 4.6 mph - N/A   Scattered Clouds
4:00 PM 69.8 °F 48.2 °F 46% 30.18 in - NW 6.9 mph - N/A   Clear
5:00 PM 69.8 °F 48.2 °F 46% 30.18 in - NW 6.9 mph - N/A   Clear
6:00 PM 69.8 °F 48.2 °F 46% 30.18 in - NW 5.8 mph - N/A   Clear
7:00 PM 68.0 °F 48.2 °F 49% 30.15 in - NNW 2.3 mph - N/A   Clear
8:00 PM 66.2 °F 48.2 °F 52% 30.15 in - Calm Calm - N/A   Clear
9:00 PM 60.8 °F 48.2 °F 63% 30.15 in - SSE 2.3 mph - N/A   Clear
10:00 PM 55.4 °F 50.0 °F 82% 30.15 in - SW 5.8 mph - N/A   Clear
11:00 PM 55.4 °F 50.0 °F 82% 30.18 in - SE 2.3 mph - N/A   Clear